Location: Baix
(44.7118°N, 4.7648°E)
Time: 07:27:45
(UTC+00:00)

Vanguard 1 - Pass Details

Date: 29 November 2020
Orbit: 648 x 3834 km, 34.3° (Epoch: 21 January)

Event Time Altitude Azimuth Distance (km) Brightness Sun altitude
Rises 08:35:14 0° 267° (W) 4,407 13.0 12.7°
Reaches altitude 10° 08:37:51 10° 260° (W) 3,746 12.8 13.0°
Maximum altitude 08:47:20 42° 193° (SSW) 2,968 13.1 14.1°
Drops below altitude 10° 09:03:36 10° 131° (SE) 6,276 16.2 15.8°
Sets 09:09:39 0° 126° (SE) 7,641 16.0 16.4°
